This demonstration page uses our WeatherBlox Daily Observations layout. Learn more.

Left ArrowRight Arrow

34.16533, -84.80231

Hourly Observations for December 27, 2017

Temp ( °F °C ) Dew Point ( °F °C ) Humidity (%) Winds ( mph kmh ) Pressure ( in mb ) Visibility ( mi km ) Precip ( " mm )
12:53 am 00:53 Partly Cloudy 37 2.8 24 -4.4 59 59 Calm 30.38 1029 10 16 0.00 0.00
1:53 am 01:53 Cloudy 37 2.8 26 -3.3 65 65 Calm 30.35 1028 10 16 0.00 0.00
2:53 am 02:53 Cloudy 37 2.8 30 -1.1 76 76 Calm 30.35 1028 10 16 0.00 0.00
3:53 am 03:53 Cloudy 38 3.3 25 -3.9 60 60 Calm 30.32 1027 10 16 0.00 0.00
4:53 am 04:53 Cloudy 38 3.3 28 -2.2 68 68 Calm 30.39 1029 10 16 0.00 0.00
5:53 am 05:53 Cloudy with Light Rain 34 1.1 32 0 92 92 Calm 30.41 1030 7 11 0.05 1.27
6:53 am 06:53 Cloudy with Light Wintry Mix 33 0.6 32 0 96 96 Calm 30.44 1031 10 16 0.02 0.51
7:53 am 07:53 Cloudy 34 1.1 33 0.6 97 97 Calm 30.44 1031 10 16 0.01 0.25
8:53 am 08:53 Cloudy 34 1.1 33 0.6 97 97 Calm 30.43 1031 10 16 0.00 0.03
9:53 am 09:53 Cloudy 35 1.7 33 0.6 93 93 Calm 30.46 1031 10 16 0.00 0.00
10:53 am 10:53 Cloudy 37 2.8 30 -1.1 76 76 N 5 7 30.46 1032 10 16 0.00 0.00
11:53 am 11:53 Cloudy 38 3.3 29 -1.7 70 70 NNW 5 7 30.44 1031 10 16 0.00 0.00
12:53 pm 12:53 Cloudy 40 4.4 27 -2.8 60 60 NNW 5 7 30.42 1030 10 16 0.00 0.00
1:53 pm 13:53 Cloudy 43 6.1 27 -2.8 53 53 VRB 5 7 30.39 1029 10 16 0.00 0.00
2:53 pm 14:53 Sunny 44 6.7 24 -4.4 45 45 N 9 15 30.38 1029 10 16 0.00 0.00
3:53 pm 15:53 Sunny 43 6.1 24 -4.4 47 47 N 13 20 30.38 1029 10 16 0.00 0.00
4:53 pm 16:53 Sunny 41 5 23 -5 49 49 NNW 10 17 30.40 1029 10 16 0.00 0.00
5:53 pm 17:53 Clear 39 3.9 24 -4.4 55 55 VRB 3 6 30.41 1030 10 16 0.00 0.00
6:53 pm 18:53 Clear 37 2.8 24 -4.4 59 59 N 5 7 30.42 1030 10 16 0.00 0.00
7:53 pm 19:53 Clear 36 2.2 24 -4.4 62 62 N 9 15 30.43 1031 10 16 0.00 0.00
8:53 pm 20:53 Clear 33 0.6 23 -5 66 66 NNW 9 15 30.44 1031 10 16 0.00 0.00
9:53 pm 21:53 Clear 32 0 23 -5 69 69 NNW 6 9 30.44 1031 10 16 0.00 0.00
10:53 pm 22:53 Clear 30 -1.1 22 -5.6 72 72 N 5 7 30.44 1031 10 16 0.00 0.00
11:53 pm 23:53 Clear 29 -1.7 21 -6.1 72 72 NNW 3 6 30.43 1031 10 16 0.00 0.00

Powered by AerisWeather